Not Loged In - Login Now or Create Account
Newest Scores
This page shows the 50 most recent scores verified. If you wish to browse scores by game, click here.

Game Player(s) Location Score Rank % Achieved
Pac-Man Plus Tim Vanderkolk Galloping Ghost Arcade 56,810 15 9.38 11/20/17
Tempest Tim Vanderkolk Galloping Ghost Arcade 113,469 8 23.59 11/20/17
Turtles Tim Vanderkolk Galloping Ghost Arcade 13,160 5 45.49 11/20/17
Truxton Jamie Tibbetts Galloping Ghost Arcade 388,130 3 78.89 11/20/17
Desert Assault Jamie Tibbetts Galloping Ghost Arcade 2,092 1 100.00 11/20/17
War: Final Assault Jamie Tibbetts Galloping Ghost Arcade 66 1 100.00 11/20/17
Stratovox Tim Vermeulen Galloping Ghost Arcade 63,100 0 0.00 11/20/17
Venture Tim Vermeulen Galloping Ghost Arcade 218,390 1 100.00 11/20/17
War: Final Assault Mases Hagopian Galloping Ghost Arcade 65 2 98.48 11/20/17
Time Pilot '84 Tim Vanderkolk Galloping Ghost Arcade 188,500 3 39.19 11/20/17
Gladiator Tim Vanderkolk Galloping Ghost Arcade 231,100 3 33.84 11/20/17
Blaster Mases Hagopian Galloping Ghost Arcade 398,650 17 13.51 11/20/17
King of Fighters '95, The Mases Hagopian Galloping Ghost Arcade 62,020 2 27.80 11/20/17
Bucky OHare Marco Gorajski Galloping Ghost Arcade 12,400 17 19.25 11/20/17
Tempest Steve Stroz Galloping Ghost Arcade 161,097 4 33.50 11/20/17
Star Wars Steve Stroz Galloping Ghost Arcade 997,046 18 14.20 11/20/17
Juno First Tim Vanderkolk Galloping Ghost Arcade 1,069,960 1 100.00 11/20/17
Juno First Peter Gorz Galloping Ghost Arcade 146,510 8 13.69 11/20/17
Time Pilot Catherine Bozzi Underground Retrocade 349,000 0 0.00 11/19/17
Robot Bowl Brendan O'Dowd Funspot - also includes ACAM 300 1 100.00 11/19/17
Zero Hour Mike SP Funspot - also includes ACAM 40,954 1 100.00 11/19/17
Centipede Dylan Koslowski Pixel Blast Arcade 150,104 15 4.01 11/19/17
Pole Position Joe Durnavich Galloping Ghost Arcade 63,950 23 96.15 11/19/17
The Getaway High Speed II Travis Lancaster Chicago Street Pinball Arcade 187,330,510 15 46.82 11/19/17
Jungle King Sean Quigley Galloping Ghost Arcade 47,870 7 47.08 11/19/17
Dirty Harry Tom Maslowski Chicago Street Pinball Arcade 336,573,210 0 0.00 11/19/17
The Getaway High Speed II Tom Maslowski Chicago Street Pinball Arcade 45,959,450 78 11.49 11/19/17
Police Force Tom Maslowski Chicago Street Pinball Arcade 4,973,160 26 9.21 11/19/17
Dirty Harry Craig Lichtenwalter Chicago Street Pinball Arcade 316,643,200 6 35.42 11/19/17
The Getaway High Speed II Travis Lancaster Chicago Street Pinball Arcade 44,805,950 78 11.20 11/19/17
Police Force Travis Lancaster Chicago Street Pinball Arcade 8,521,550 15 15.79 11/19/17
Spectre Files - Deathstalker Sean Quigley Galloping Ghost Arcade 42,304 1 100.00 11/19/17
Space Zap Graham Ogilvie Funspot - also includes ACAM 106,750 72 36.03 11/18/17
Circus Charlie James Cameron Funspot - also includes ACAM 339,060 12 33.91 11/18/17
Dirty Harry John George Chicago Street Pinball Arcade 602,249,990 3 67.38 11/18/17
Space Ace Matt Burke Underground Retrocade 19,742 1 100.00 11/18/17
Simpsons, The Matt Burke Underground Retrocade 69 9 24.30 11/18/17
Dragon's Lair II: Time Warp Matt Burke Underground Retrocade 23,250 2 62.58 11/18/17
Bubble Bobble Matt Burke Underground Retrocade 513,720 12 5.14 11/18/17
Galaxian Jamie Tibbetts Underground Retrocade 13,920 50 0.84 11/18/17
Operation: Thunder Jamie Tibbetts Underground Retrocade 65,782,460 3 80.12 11/18/17
Rush `n Attack Jamie Tibbetts Underground Retrocade 92,260 0 0.00 11/18/17
Stratovox Tim Vermeulen Underground Retrocade 72,100 3 60.61 11/18/17
Dirty Harry Travis Lancaster Chicago Street Pinball Arcade 893,862,320 1 100.00 11/18/17
Police Force John George Chicago Street Pinball Arcade 7,215,890 18 13.37 11/18/17
Chase HQ Martin Bedard Funspot - also includes ACAM 5,332,540 1 100.00 11/18/17
Rampage Lindsey Vermeulen Underground Retrocade 65,700 16 3.08 11/18/17
Champion Pub, The Jason Werdrick Flippers 38,406,260 32 20.12 11/18/17
AC/DC Ovid Dillard Flippers 37,786,180 55 17.44 11/18/17
Aerosmith Deborah Tahlman Flippers 42,613,450 45 21.26 11/18/17
Fish Tales Sean Bueter Flippers 82,465,780 65 10.46 11/18/17
KISS (Stern) Jeff McElhannon Flippers 66,407,070 36 30.46 11/18/17
Flash Gordon Matt Deworken Flippers 395,280 96 14.08 11/18/17
Fish Tales Trent Augenstein Flippers 101,657,890 0 0.00 11/18/17
Whirlwind Andrew Pancoast Flippers 6,099,840 0 0.00 11/18/17
Addams Family, The Brad DeShong Flippers 37,454,870 107 12.64 11/18/17
Dialed In! Joe Albertson Flippers 838,870 5 69.73 11/18/17
AC/DC Tim Sexton Flippers 42,350,830 50 19.55 11/18/17
The Getaway High Speed II Robert Sneed Flippers 126,865,340 34 31.71 11/18/17
Addams Family, The David Klionsky Flippers 38,459,940 0 0.00 11/18/17
Flash Gordon Marcelo Campos Hazan Flippers 1,107,860 12 39.47 11/18/17
Aerosmith Fred Richardson Flippers 170,968,860 3 85.32 11/18/17
Addams Family, The Andrew Skelton Flippers 68,942,700 56 23.27 11/18/17
Star Wars Pinball 2017 Sean Bueter Flippers 209,825,580 50 7.90 11/18/17
AC/DC Kevin Shanus Flippers 34,872,980 62 16.10 11/18/17
KISS (Stern) Deborah Tahlman Flippers 41,648,560 67 19.11 11/18/17
Star Wars Pinball 2017 Justin Richardson Flippers 190,009,140 56 7.15 11/18/17
Flash Gordon Garth K Dunklin Jr Flippers 636,600 54 22.68 11/18/17
Whirlwind Daniel Purdy Flippers 3,912,380 176 8.98 11/18/17
The Getaway High Speed II Christopher Morgan Flippers 34,641,180 84 8.66 11/18/17
Star Wars Pinball 2017 Scott Durfee Flippers 163,600,710 69 6.16 11/18/17
KISS (Stern) Paul Caras Flippers 42,640,430 62 19.56 11/18/17
Flash Gordon Tyler Wilkin Flippers 724,430 41 25.81 11/18/17
Fish Tales Steven Bowden Flippers 194,463,980 0 0.00 11/18/17
Champion Pub, The Shannon Stafford Flippers 48,742,650 22 25.54 11/18/17
Dialed In! Scott Kutheis Flippers 171,360 45 14.24 11/18/17
Aerosmith James Proffitt Flippers 79,970,190 21 39.91 11/18/17
AC/DC Sean Bueter Flippers 35,585,100 59 16.43 11/18/17
Whirlwind Basci Dinc Flippers 6,243,930 114 14.33 11/18/17
KISS (Stern) Tom Benevento Flippers 29,062,700 103 13.33 11/18/17
Dialed In! Chris Compton Flippers 131,670 51 10.94 11/18/17
Fish Tales Justin Campbell Flippers 134,129,250 36 17.01 11/18/17
Star Wars Pinball 2017 Laura Fraley Flippers 97,110,980 93 3.66 11/18/17
The Getaway High Speed II Garth K Dunklin Jr Flippers 166,390,880 22 41.59 11/18/17
Flash Gordon Matt Deworken Flippers 309,100 115 11.01 11/18/17
Star Wars Pinball 2017 Eric Destasio Flippers 294,200,870 34 11.08 11/18/17
KISS (Stern) Drew Cedolia Flippers 111,576,650 10 51.19 11/18/17
AC/DC Angela Pecora Flippers 9,013,770 178 4.16 11/18/17
Whirlwind Scott Durfee Flippers 3,951,740 0 0.00 11/18/17
Dialed In! Warren Roy Flippers 97,120 63 8.07 11/18/17
Addams Family, The Jason Werdrick Flippers 51,791,650 79 17.48 11/18/17
Aerosmith Justin Richardson Flippers 21,658,270 61 10.81 11/18/17
Champion Pub, The Chris Day Flippers 16,473,600 105 8.63 11/18/17
Star Wars Pinball 2017 Pete Indick Flippers 195,406,480 54 7.36 11/18/17
The Getaway High Speed II Robert Sneed Flippers 41,272,000 78 10.32 11/18/17
Fish Tales Steven Bowden Flippers 196,008,600 0 0.00 11/18/17
Star Wars Pinball 2017 Dave Weaver Flippers 186,071,760 59 7.01 11/18/17
The Getaway High Speed II Tia Roberts Flippers 31,094,350 88 7.77 11/18/17
KISS (Stern) Angela Pecora Flippers 33,642,200 90 15.43 11/18/17
Flash Gordon Matt Deworken Flippers 228,760 130 8.15 11/18/17
Dialed In! Joan McCool Flippers 191,170 43 15.89 11/18/17
Flash Gordon Anthony Wojtkowiak Flippers 392,630 98 13.99 11/18/17
AC/DC Deborah Tahlman Flippers 24,136,250 101 11.14 11/18/17
Whirlwind Scott Durfee Flippers 3,140,320 0 0.00 11/18/17
Star Wars Pinball 2017 Eric Destasio Flippers 103,075,790 90 3.88 11/18/17
Flash Gordon Howard Dobson Flippers 841,970 30 29.99 11/18/17
Champion Pub, The Jason Werdrick Flippers 37,828,340 33 19.82 11/18/17
Addams Family, The James Proffitt Flippers 73,495,400 52 24.81 11/18/17
KISS (Stern) Robert Sneed Flippers 45,099,730 59 20.69 11/18/17
Dialed In! Tom Destasio Flippers 459,540 19 38.20 11/18/17
Aerosmith Chris Compton Flippers 39,064,910 49 19.49 11/18/17
Addams Family, The Ovid Dillard Flippers 73,867,100 0 0.00 11/18/17
Champion Pub, The Matt Gusler Flippers 33,890,390 39 17.76 11/18/17
Star Wars Pinball 2017 Tia Roberts Flippers 146,439,990 78 5.51 11/18/17
Whirlwind Andrew Skelton Flippers 6,557,450 104 15.05 11/18/17
AC/DC Deborah Tahlman Flippers 10,802,660 168 4.99 11/18/17
Flash Gordon Sean Bueter Flippers 441,040 90 15.71 11/18/17
Aerosmith Tony Pierce Flippers 143,529,190 8 71.62 11/18/17
Space Shuttle Joe Cahill Underground Retrocade 684,840 58 19.56 11/18/17
Smash TV Joe Cahill Underground Retrocade 413,650 41 3.10 11/18/17
Donkey Kong 3 Joe Cahill Underground Retrocade 375,900 10 21.22 11/18/17
Buck Rogers Garth K Dunklin Jr Flippers 199,490 86 24.03 11/18/17
KISS (Stern) Dave Weaver Flippers 26,877,360 112 12.33 11/18/17
Addams Family, The Marcelo Campos Hazan Flippers 44,326,670 95 14.96 11/18/17
Dialed In! Angela Pecora Flippers 110,450 57 9.18 11/18/17
Star Wars Pinball 2017 Chipper Hughes Flippers 25,380,740 0 0.00 11/18/17
The Getaway High Speed II Clark Fraley Flippers 67,207,380 63 16.80 11/18/17
Star Wars Pinball 2017 Kevin Shanus Flippers 582,860,670 15 21.95 11/18/17
Addams Family, The Joan McCool Flippers 11,246,180 151 3.80 11/18/17
KISS (Stern) David Klionsky Flippers 23,274,510 0 0.00 11/18/17
Dialed In! Jon Replogle Flippers 314,170 29 26.11 11/18/17
Aerosmith Eric Destasio Flippers 152,904,740 4 76.30 11/18/17
Fish Tales Matt Deworken Flippers 87,975,830 60 11.16 11/18/17
Flash Gordon Tim McCool Flippers 618,020 58 22.02 11/18/17
Whirlwind Tim Sexton Flippers 13,529,980 14 31.05 11/18/17
Fish Tales Laura Fraley Flippers 57,882,610 102 7.34 11/18/17
KISS (Stern) Chris Day Flippers 9,766,740 164 4.48 11/18/17
The Getaway High Speed II Warren Roy Flippers 59,186,020 69 14.79 11/18/17
Buck Rogers Tia Roberts Flippers 161,730 105 19.48 11/18/17
KISS (Stern) Jeff McElhannon Flippers 45,733,280 0 0.00 11/18/17
Star Wars Pinball 2017 Sunshine Bon Flippers 454,179,160 23 17.10 11/18/17
Champion Pub, The Trent Augenstein Flippers 73,459,490 7 38.49 11/18/17
Fish Tales Steven Bowden Flippers 126,018,650 0 0.00 11/18/17
Aerosmith Justin Campbell Flippers 122,894,230 11 61.33 11/18/17
Buck Rogers Paul Caras Flippers 288,850 38 34.80 11/18/17
Addams Family, The Scott Kutheis Flippers 25,513,530 134 8.61 11/18/17
AC/DC Andrew Pancoast Flippers 63,929,670 0 0.00 11/18/17
Whirlwind Basci Dinc Flippers 4,039,590 172 9.27 11/18/17
Buck Rogers Ross Wilson Flippers 120,450 0 0.00 11/18/17
Fish Tales Pete Hendricks Flippers 56,455,690 104 7.16 11/18/17
Addams Family, The Bayless Rutherford Flippers 90,946,240 30 30.69 11/18/17
KISS (Stern) Davey Plaisted Flippers 39,164,950 75 17.97 11/18/17
Dialed In! Chris Day Flippers 577,130 14 47.97 11/18/17
Buck Rogers David Klionsky Flippers 257,150 57 30.98 11/18/17
Aerosmith Deborah Tahlman Flippers 21,015,800 61 10.49 11/18/17
Star Wars Pinball 2017 Justin Richardson Flippers 168,572,260 65 6.35 11/18/17
Flash Gordon Pete Indick Flippers 352,930 108 12.57 11/18/17
Whirlwind Marcelo Campos Hazan Flippers 7,613,320 72 17.47 11/18/17
The Getaway High Speed II Ovid Dillard Flippers 182,632,780 19 45.65 11/18/17
AC/DC Drew Cedolia Flippers 46,836,970 0 0.00 11/18/17
Star Wars Pinball 2017 Joan McCool Flippers 110,914,640 88 4.18 11/18/17
KISS (Stern) Sunshine Bon Flippers 94,619,920 17 43.41 11/18/17
Dialed In! Kevin Shanus Flippers 717,780 8 59.66 11/18/17
Aerosmith Tim Sexton Flippers 149,816,240 5 74.76 11/18/17
Fish Tales Howard Dobson Flippers 76,952,980 73 9.76 11/18/17
Buck Rogers Justin Campbell Flippers 413,160 10 49.77 11/18/17
Star Wars Pinball 2017 Bayless Rutherford Flippers 162,813,700 71 6.13 11/18/17
Flash Gordon Tim McCool Flippers 421,960 90 15.03 11/18/17
Fish Tales Chipper Hughes Flippers 43,303,590 0 0.00 11/18/17
KISS (Stern) Steven Bowden Flippers 99,968,570 13 45.86 11/18/17
Whirlwind Laura Fraley Flippers 3,839,510 181 8.81 11/18/17
Dialed In! Justin Richardson Flippers 241,220 36 20.05 11/18/17
Addams Family, The Jon Replogle Flippers 114,329,000 18 38.59 11/18/17
Champion Pub, The Dave Weaver Flippers 15,807,670 107 8.28 11/18/17
Flash Gordon Deborah Tahlman Flippers 442,810 0 0.00 11/18/17
Fish Tales Anthony Wojtkowiak Flippers 37,635,290 0 0.00 11/18/17
KISS (Stern) Tyler Wilkin Flippers 50,353,580 0 0.00 11/18/17
Champion Pub, The Shannon Stafford Flippers 18,233,210 93 9.55 11/18/17
Star Wars Pinball 2017 Angela Pecora Flippers 157,241,340 74 5.92 11/18/17
AC/DC Warren Roy Flippers 19,719,640 116 9.10 11/18/17
The Getaway High Speed II Fred Richardson Flippers 236,811,620 8 59.19 11/18/17
Whirlwind James Proffitt Flippers 7,961,700 67 18.27 11/18/17
Aerosmith AJ Replogle Flippers 12,622,580 65 6.30 11/18/17
Dialed In! Chris Day Flippers 204,990 40 17.04 11/18/17
AC/DC Chipper Hughes Flippers 53,043,330 33 24.48 11/18/17
Addams Family, The Clark Fraley Flippers 41,282,540 100 13.93 11/18/17
Flash Gordon Jason Werdrick Flippers 1,613,890 4 57.49 11/18/17
KISS (Stern) Tim Sexton Flippers 84,614,480 24 38.82 11/18/17
Aerosmith Matt Gusler Flippers 62,222,520 30 31.05 11/18/17
Whirlwind Justin Campbell Flippers 6,907,380 94 15.85 11/18/17
AC/DC Basci Dinc Flippers 84,664,010 8 39.08 11/18/17
Addams Family, The Levi Nayman Flippers 274,658,240 2 92.70 11/18/17
Buck Rogers Anthony Wojtkowiak Flippers 204,420 83 24.63 11/18/17
KISS (Stern) Steven Bowden Flippers 65,820,640 36 30.20 11/18/17
Whirlwind Joan McCool Flippers 2,541,630 249 5.83 11/18/17
Flash Gordon Deborah Tahlman Flippers 124,470 0 0.00 11/18/17
Terminator 2: Judgement Day Scott Kutheis Flippers 111,441,230 17 40.69 11/18/17
Flash Gordon Andrew Pancoast Flippers 488,520 0 0.00 11/18/17
Dragon Ball Z Pete Hahn Galloping Ghost Arcade 366,700 1 100.00 11/18/17
Aerosmith Shannon Stafford Flippers 52,964,400 37 26.43 11/18/17
Recent Scores
56,810
Tim Vanderkolk
11/20/2017
113,469
Tim Vanderkolk
11/20/2017
13,160
Tim Vanderkolk
11/20/2017
388,130
Jamie Tibbetts
11/20/2017
2,092
Jamie Tibbetts
11/20/2017